K0PFX-8 Weather Reports


Display with metric or nautical units.
time (UTC)temp
F
wind
direction
speed
MPH
gust
MPH
rain 1hr
in
rain 24hr
in
rain mn
in
humidity
%
barometer
mb
20180223234605 45 6 5.0 2.0 0.00 0.43 0.01 91 1024.7
20180223233107 46 0 3.0 0.0 0.00 0.43 0.01 91 1024.5
20180223231605 46 359 4.0 5.0 0.00 0.43 0.01 91 1024.2
20180223230104 46 11 5.0 3.0 0.00 0.43 0.01 91 1024.1
20180223224700 47 59 4.0 5.0 0.00 0.43 0.01 91 1024.2
20180223224600 47 59 4.0 5.0 0.00 0.43 0.01 91 1024.2
20180223223100 47 311 0.0 0.0 0.00 0.43 0.01 91 1024.4
20180223221555 47 300 3.0 4.0 0.00 0.43 0.01 91 1024.4
20180223220057 47 318 5.0 7.0 0.00 0.43 0.01 91 1024.5
20180223214556 47 322 5.0 6.0 0.00 0.43 0.01 91 1024.5
20180223213058 48 325 6.0 6.0 0.00 0.43 0.01 91 1024.6
20180223211552 48 347 6.0 2.0 0.00 0.43 0.01 90 1024.0
20180223210054 48 15 4.0 4.0 0.00 0.43 0.01 90 1024.2
20180223204553 49 319 5.0 5.0 0.00 0.43 0.01 89 1024.4
20180223203054 49 284 6.0 5.0 0.00 0.43 0.01 89 1024.4
20180223201553 49 281 8.0 6.0 0.00 0.43 0.01 88 1024.3
20180223200054 49 263 9.0 8.0 0.00 0.43 0.01 90 1024.6
20180223194552 49 287 8.0 7.0 0.00 0.43 0.01 90 1024.7
20180223193054 49 252 8.0 9.0 0.00 0.43 0.01 90 1024.5
20180223191550 49 240 6.0 7.0 0.00 0.43 0.01 90 1024.6
20180223190053 49 277 9.0 8.0 0.00 0.43 0.01 90 1024.9
20180223184549 49 191 5.0 6.0 0.00 0.43 0.01 90 1024.9
20180223183051 49 270 8.0 10.0 0.00 0.43 0.01 90 1025.2
20180223181549 49 248 7.0 6.0 0.00 0.43 0.01 90 1025.5
20180223180051 49 255 6.0 6.0 0.00 0.43 0.01 90 1025.8
20180223174549 49 270 6.0 8.0 0.00 0.43 0.01 90 1025.9
20180223173051 49 285 8.0 8.0 0.00 0.43 0.01 90 1025.9
20180223171545 47 277 12.0 12.0 0.00 0.43 0.01 90 1025.8
20180223170047 48 266 6.0 6.0 0.00 0.43 0.01 89 1025.7
20180223164541 48 210 9.0 7.0 0.00 0.43 0.01 86 1025.7
20180223163043 47 288 9.0 8.0 0.00 0.43 0.01 87 1025.8
20180223161537 47 322 7.0 8.0 0.00 0.43 0.01 86 1025.9
20180223160039 46 287 9.0 8.0 0.00 0.43 0.01 84 1025.8
20180223154534 46 257 5.0 5.0 0.00 0.43 0.01 82 1025.7
20180223153034 46 291 9.0 7.0 0.00 0.43 0.01 81 1025.6
20180223150033 46 243 8.0 10.0 0.00 0.43 0.01 80 1025.7
20180223144525 46 274 6.0 7.0 0.00 0.43 0.01 81 1025.8
20180223141525 45 262 7.0 7.0 0.00 0.43 0.01 83 1025.0
20180223140028 45 248 6.0 8.0 0.00 0.43 0.01 86 1024.8
20180223133022 45 274 8.0 6.0 0.00 0.43 0.01 93 1024.4
20180223131520 45 228 7.0 6.0 0.00 0.43 0.01 100 1024.7
20180223130022 46 255 6.0 6.0 0.00 0.43 0.01 100 1024.4
20180223124516 46 225 6.0 6.0 0.00 0.43 0.01 100 1024.2
20180223123015 46 260 4.0 4.0 0.00 0.43 0.01 100 1023.8
20180223121512 46 280 7.0 6.0 0.00 0.43 0.01 100 1023.5
20180223114454 46 256 5.0 11.0 0.00 0.43 0.01 100 1023.3
20180223112955 46 245 9.0 8.0 0.00 0.43 0.01 100 1022.8
20180223111443 46 257 9.0 9.0 0.00 0.43 0.01 100 1022.6
20180223105945 46 232 6.0 6.0 0.00 0.43 0.01 100 1022.4
20180223104442 46 253 8.0 6.0 0.01 0.43 0.01 100 1022.1
20180223102939 46 257 6.0 6.0 0.01 0.43 0.01 100 1022.2
20180223095940 46 281 5.0 7.0 0.01 0.43 0.01 100 1021.9
20180223094432 46 263 5.0 6.0 0.00 0.43 0.01 100 1021.9
20180223092934 46 257 6.0 5.0 0.00 0.43 0.01 91 1022.1
20180223091431 46 288 5.0 5.0 0.00 0.43 0.01 90 1022.2
20180223085932 46 280 8.0 6.0 0.00 0.43 0.00 87 1022.2
20180223084430 46 274 9.0 7.0 0.00 0.43 0.00 86 1022.2
20180223082932 46 262 8.0 5.0 0.00 0.43 0.00 87 1021.9
20180223081430 46 205 5.0 5.0 0.00 0.43 0.00 91 1020.8
20180223075932 46 201 6.0 7.0 0.00 0.43 0.00 93 1020.6
20180223074430 46 152 5.0 5.0 0.00 0.43 0.00 92 1020.5
20180223072931 45 204 7.0 8.0 0.00 0.43 0.00 92 1020.2
20180223071426 45 155 6.0 10.0 0.00 0.43 0.00 91 1020.3
20180223065927 45 169 7.0 8.0 0.00 0.43 0.00 91 1020.3
20180223064425 45 183 4.0 4.0 0.01 0.43 0.00 92 1020.3
20180223062927 45 135 5.0 7.0 0.01 0.43 0.00 91 1020.6
20180223052927 44 184 7.0 4.0 0.00 0.11 0.43 90 1021.1
20180223044426 44 134 9.0 10.0 0.04 0.11 0.42 87 1021.7
20180223035927 44 152 6.0 9.0 0.04 0.11 0.42 83 1022.7
20180223031426 44 187 5.0 5.0 0.03 0.11 0.39 83 1025.2
20180223024422 44 139 5.0 4.0 0.00 0.11 0.37 84 1024.7
20180223022924 43 129 4.0 4.0 0.00 0.11 0.36 82 1025.1
20180223015925 43 129 3.0 3.0 0.00 0.11 0.35 82 1025.1
20180223014421 43 131 5.0 4.0 0.00 0.11 0.35 82 1024.9
20180223012923 43 193 1.0 5.0 0.00 0.11 0.35 82 1025.9
20180223011421 43 110 0.0 0.0 0.00 0.11 0.35 82 1026.1
20180223005922 43 110 0.0 0.0 0.00 0.11 0.35 81 1025.8
20180223004421 43 263 0.0 0.0 0.00 0.11 0.35 80 1026.2
20180223002922 43 263 0.0 0.0 0.00 0.11 0.35 79 1026.2
20180222235923 43 266 0.0 3.0 0.00 0.11 0.35 79 1025.6